Location: ???????????
(54.5822°N, 39.1075°E)
Time: 04:30:44
(UTC+00:00)

Cosmos 405 Rocket - Pass Details

Date: 19 May 2025
Orbit: 413 x 447 km, 81.2° (Epoch: 19 June)

Event Time Altitude Azimuth Distance (km) Brightness Sun altitude
Rises 20:02:08 0° 345° (NNW) 2,469 8.2 -13.6°
Reaches altitude 10° 20:04:13 10° 343° (NNW) 1,586 6.6 -13.7°
Maximum altitude 20:07:40 75° 259° (W) 466 2.4 -13.9°
Enters shadow 20:09:25 27° 177° (S) 893 3.3 -13.9°
